[[{"header":{"parameterUnit":"m.s-1","parameterCategory":1,"la1":30.2991,"la2":30.254,"lo1":-89.0895,"lo2":-89.0444,"dy":0.0017,"dx":0.0017,"nx":28,"ny":28,"refTime":"2025-08-02T09:00:00:Z","depth":0,"parameterNumber":2,"parameterNumberName":"U-component_of_WINDS"},"data":[0,0,0,0,0,0,0,0,0,0,0,0,0,0,0,0,0,0,0,0,0,0,0,0,0,0,0,0,0,0,0,0,0,0,0,0,0,0,0,0,0,0,0,0,0,0,0,0,0,0,0,0,0,0,0,0,0,0,-0.2119,-0.2118,0,-0.2065,-0.2065,-0.2064,-0.2028,-0.2028,-0.2028,-0.2028,-0.1972,-0.197,-0.1969,0,0,0,0,0,0,0,0,0,0,0,0,0,-0.2188,-0.2187,-0.2119,-0.2118,-0.2118,-0.2065,-0.2065,-0.2064,-0.2028,-0.2028,-0.2028,-0.2028,-0.1972,-0.1971,-0.1969,0,0,0,0,0,0,0,0,0,0,0,0,0,-0.2149,-0.2187,-0.2119,-0.2094,-0.2091,-0.2065,-0.2065,-0.2064,-0.2029,-0.2028,-0.2028,-0.2028,-0.1973,-0.1971,-0.1969,-0.1964,0,0,-0.1963,-0.1962,0,0,0,0,0,0,0,0,-0.2151,-0.2146,-0.2098,-0.2096,-0.2092,-0.2053,-0.2068,-0.203,-0.2029,-0.2052,-0.2028,-0.2027,-0.1999,-0.1995,-0.1985,-0.1961,-0.1959,-0.1963,-0.1962,-0.1961,-0.196,0,0,0,0,0,0,0,-0.2154,-0.2148,-0.2098,-0.2098,-0.2094,-0.2084,-0.2078,-0.2061,-0.2028,-0.205,-0.2047,-0.2042,-0.1997,-0.1987,-0.1984,-0.1958,-0.1963,-0.1961,-0.196,-0.1959,-0.1924,-0.1924,0,0,0,0,0,0,-0.2161,-0.2151,-0.2099,-0.2096,-0.2122,-0.2083,-0.2076,-0.2066,-0.2028,-0.2022,-0.2042,-0.204,-0.1991,-0.1986,-0.1982,-0.1972,-0.1961,-0.1959,-0.1958,-0.1924,-0.1924,-0.1924,0,0,0,0,0,0,-0.2163,-0.2157,-0.2102,-0.2123,-0.2115,-0.2082,-0.2071,-0.2065,-0.2055,-0.2022,-0.2016,-0.2038,-0.199,-0.1984,-0.1968,-0.197,-0.1958,-0.1956,-0.1924,-0.1924,-0.1924,-0.1954,0,0,0,0,0,0,-0.2165,-0.2158,-0.2156,-0.2123,-0.2114,-0.209,-0.2071,-0.2064,-0.2052,-0.2049,-0.2017,-0.2011,-0.199,-0.1971,-0.1966,-0.1967,-0.1955,-0.1923,-0.1924,-0.1924,-0.1952,-0.1955,-0.1957,0,0,0,0,0,-0.2167,-0.2167,-0.2156,-0.215,-0.2112,-0.209,-0.2085,-0.2061,-0.2053,-0.205,-0.2028,-0.2012,-0.197,-0.197,-0.1964,-0.1964,-0.1923,-0.1924,-0.1924,-0.1951,-0.1954,-0.1957,0,0,0,0,0,0,-0.2202,-0.2162,-0.215,-0.2139,-0.2118,-0.2084,-0.2081,-0.2065,-0.2046,-0.2044,-0.2014,-0.2007,-0.1993,-0.1977,-0.1977,-0.1956,-0.1944,-0.1944,-0.1967,-0.197,-0.1972,-0.1976,-0.1953,0,0,0,0,0,-0.2208,-0.2194,-0.216,-0.2154,-0.2144,-0.2114,-0.2104,-0.2087,-0.2063,-0.2054,-0.2032,-0.2009,-0.1991,-0.1979,-0.1961,-0.1949,-0.1941,-0.1946,-0.1949,-0.1951,-0.1951,-0.1941,-0.1943,-0.1926,-0.1926,-0.1926,0,0,-0.2221,-0.2197,-0.2191,-0.216,-0.2142,-0.2127,-0.2107,-0.2093,-0.2081,-0.2052,-0.2035,-0.2017,-0.199,-0.1976,-0.1968,-0.1962,-0.1953,-0.1951,-0.1953,-0.1952,-0.1942,-0.1943,-0.1945,-0.1926,-0.1926,-0.1926,0,0,-0.2237,-0.2218,-0.221,-0.2192,-0.2164,-0.2144,-0.2142,-0.2109,-0.2096,-0.2079,-0.2056,-0.2041,-0.201,-0.1991,-0.1978,-0.1983,-0.1967,-0.1978,-0.199,-0.1982,-0.1983,-0.1984,-0.1985,-0.1985,-0.1978,-0.1978,-0.1978,0,-0.2256,-0.2234,-0.2208,-0.2194,-0.2181,-0.2153,-0.2143,-0.2127,-0.2094,-0.2085,-0.2078,-0.2037,-0.2017,-0.1997,-0.1998,-0.1988,-0.1984,-0.1982,-0.1985,-0.1986,-0.1986,-0.1986,-0.1987,-0.1979,-0.1979,-0.1979,-0.1979,0,-0.2258,-0.2243,-0.224,-0.2209,-0.2194,-0.2183,-0.2154,-0.2142,-0.2125,-0.2106,-0.2086,-0.2061,-0.2036,-0.2029,-0.2013,-0.2006,-0.2003,-0.1991,-0.1979,-0.199,-0.1989,-0.1989,-0.1981,-0.1981,-0.198,-0.198,0,0,-0.2296,-0.2249,-0.2248,-0.2233,-0.2199,-0.2186,-0.2172,-0.2148,-0.2138,-0.2115,-0.2102,-0.2076,-0.2063,-0.2048,-0.2029,-0.2021,-0.2025,-0.201,-0.2009,-0.2013,-0.2014,-0.2023,-0.2024,-0.2014,-0.2014,-0.2014,-0.2016,0,-0.2307,-0.2282,-0.2256,-0.224,-0.2224,-0.2196,-0.2184,-0.2161,-0.2141,-0.2124,-0.2102,-0.2083,-0.207,-0.206,-0.2051,-0.2027,-0.2025,-0.2026,-0.2,-0.2,-0.2008,-0.2024,-0.2034,-0.2037,-0.2016,-0.2016,-0.2016,0,-0.2316,-0.2294,-0.2276,-0.2242,-0.2234,-0.2224,-0.2198,-0.2183,-0.2155,-0.2141,-0.2122,-0.2102,-0.2084,-0.2074,-0.2048,-0.2049,-0.2037,-0.2023,-0.2023,-0.2019,-0.2009,-0.202,-0.2038,-0.2038,-0.2015,-0.2015,-0.2015,0,-0.2344,-0.2311,-0.2295,-0.2283,-0.2243,-0.2236,-0.2218,-0.2191,-0.2176,-0.2153,-0.2143,-0.2118,-0.2104,-0.2085,-0.2057,-0.2052,-0.2034,-0.2021,-0.202,-0.2021,-0.2018,-0.2019,-0.2033,-0.2011,-0.2011,-0.2011,-0.2011,0,-0.2358,-0.2348,-0.2307,-0.2297,-0.2284,-0.2254,-0.2241,-0.2222,-0.2197,-0.2181,-0.2155,-0.2142,-0.2106,-0.2087,-0.2065,-0.2046,-0.2041,-0.2028,-0.2022,-0.203,-0.2032,-0.2022,-0.2021,-0.2011,-0.2011,-0.2011,-0.2011,0,-0.2388,-0.236,-0.2341,-0.2304,-0.2294,-0.2286,-0.2253,-0.2242,-0.222,-0.2201,-0.2195,-0.216,-0.2136,-0.2107,-0.2074,-0.2059,-0.2042,-0.2033,-0.2051,-0.2048,-0.2048,-0.2049,-0.2057,-0.2056,-0.2035,-0.2035,-0.2035,0,-0.2399,-0.239,-0.2352,-0.234,-0.2323,-0.2305,-0.229,-0.2259,-0.2244,-0.2211,-0.2203,-0.2177,-0.2155,-0.2118,-0.2089,-0.2063,-0.2053,-0.2058,-0.2049,-0.2057,-0.2052,-0.2053,-0.2051,-0.2061,-0.2061,-0.2061,-0.2062,0,-0.2421,-0.2407,-0.2387,-0.2361,-0.2344,-0.2322,-0.2299,-0.2291,-0.2255,-0.2239,-0.2215,-0.2197,-0.2163,-0.2137,-0.2107,-0.2087,-0.2068,-0.2064,-0.2062,-0.2071,-0.2081,-0.2074,-0.2057,-0.2064,-0.2064,-0.2064,-0.2064,-0.2064,-0.2441,-0.2431,-0.2402,-0.238,-0.2359,-0.2338,-0.2325,-0.23,-0.228,-0.2249,-0.2232,-0.2207,-0.2177,-0.2135,-0.2116,-0.2095,-0.2088,-0.2086,-0.2085,-0.2085,-0.2087,-0.2084,-0.2089,-0.2089,-0.2089,-0.2089,-0.2089,0,-0.2461,-0.244,-0.242,-0.2388,-0.237,-0.2353,-0.2326,-0.2312,-0.2291,-0.2265,-0.2243,-0.2214,-0.2188,-0.2156,-0.2128,-0.2117,-0.2107,-0.211,-0.2111,-0.2106,-0.2096,-0.21,-0.2119,-0.2119,-0.2119,-0.2119,-0.2119,-0.2119,-0.2469,-0.2451,-0.2433,-0.2404,-0.2383,-0.2359,-0.2345,-0.2324,-0.2303,-0.2271,-0.225,-0.2229,-0.22,-0.2169,-0.2143,-0.2135,-0.2125,-0.2131,-0.2119,-0.211,-0.2107,-0.2105,-0.2108,-0.2129,-0.2129,-0.2131,-0.2131,-0.2131]},{"header":{"parameterUnit":"m.s-1","parameterCategory":1,"la1":30.2991,"la2":30.254,"lo1":-89.0895,"lo2":-89.0444,"dy":0.0017,"dx":0.0017,"nx":28,"ny":28,"refTime":"2025-08-02T09:00:00:Z","depth":0,"parameterNumber":3,"parameterNumberName":"V-component_of_WINDS"},"data":[0,0,0,0,0,0,0,0,0,0,0,0,0,0,0,0,0,0,0,0,0,0,0,0,0,0,0,0,0,0,0,0,0,0,0,0,0,0,0,0,0,0,0,0,0,0,0,0,0,0,0,0,0,0,0,0,0,0,-2.836,-2.8359,0,-2.8336,-2.8335,-2.8335,-2.8313,-2.8313,-2.8313,-2.8312,-2.8284,-2.8284,-2.8283,0,0,0,0,0,0,0,0,0,0,0,0,0,-2.8385,-2.8384,-2.836,-2.8359,-2.8359,-2.8336,-2.8335,-2.8335,-2.8313,-2.8313,-2.8313,-2.8312,-2.8285,-2.8284,-2.8283,0,0,0,0,0,0,0,0,0,0,0,0,0,-2.8368,-2.8384,-2.836,-2.8345,-2.8344,-2.8336,-2.8335,-2.8335,-2.8313,-2.8313,-2.8312,-2.8312,-2.8285,-2.8284,-2.8283,-2.8286,0,0,-2.8281,-2.8281,0,0,0,0,0,0,0,0,-2.8369,-2.8368,-2.8348,-2.8346,-2.8345,-2.8327,-2.8334,-2.8318,-2.8313,-2.8325,-2.8312,-2.8312,-2.8299,-2.8297,-2.8293,-2.8285,-2.8284,-2.8281,-2.828,-2.828,-2.828,0,0,0,0,0,0,0,-2.8371,-2.8368,-2.835,-2.8348,-2.8346,-2.834,-2.8337,-2.8331,-2.8314,-2.8324,-2.8322,-2.832,-2.8298,-2.8294,-2.8292,-2.8283,-2.8281,-2.828,-2.828,-2.8279,-2.8278,-2.8278,0,0,0,0,0,0,-2.8374,-2.837,-2.8351,-2.8349,-2.8356,-2.8339,-2.8336,-2.8333,-2.8314,-2.8311,-2.832,-2.8319,-2.8295,-2.8293,-2.8291,-2.8294,-2.828,-2.8279,-2.8279,-2.8278,-2.8278,-2.8278,0,0,0,0,0,0,-2.8375,-2.8373,-2.8352,-2.8359,-2.8356,-2.8339,-2.8336,-2.8333,-2.8329,-2.8311,-2.8308,-2.8319,-2.8295,-2.8292,-2.8288,-2.8293,-2.8279,-2.8278,-2.8277,-2.8278,-2.8278,-2.83,0,0,0,0,0,0,-2.8376,-2.8373,-2.8374,-2.8359,-2.8356,-2.835,-2.8336,-2.8333,-2.8328,-2.8326,-2.831,-2.8307,-2.8294,-2.8289,-2.8287,-2.8291,-2.8278,-2.8276,-2.8277,-2.8278,-2.8298,-2.8301,-2.8303,0,0,0,0,0,-2.8377,-2.838,-2.8375,-2.8372,-2.8357,-2.835,-2.8348,-2.8335,-2.8328,-2.8329,-2.8319,-2.8307,-2.8293,-2.8289,-2.8287,-2.8291,-2.8276,-2.8277,-2.8278,-2.8297,-2.83,-2.8303,0,0,0,0,0,0,-2.8395,-2.8378,-2.8371,-2.837,-2.8362,-2.8346,-2.8347,-2.8338,-2.833,-2.8329,-2.8312,-2.8308,-2.8306,-2.8298,-2.8294,-2.8293,-2.8283,-2.8283,-2.8299,-2.8301,-2.8304,-2.8305,-2.8277,0,0,0,0,0,-2.8399,-2.8396,-2.8381,-2.8381,-2.8378,-2.8363,-2.836,-2.8351,-2.8341,-2.8337,-2.8325,-2.8316,-2.8309,-2.8305,-2.8298,-2.8298,-2.8294,-2.8299,-2.8301,-2.8303,-2.8304,-2.8304,-2.8306,-2.8282,-2.8282,-2.8282,0,0,-2.8407,-2.8397,-2.8396,-2.8385,-2.8377,-2.8374,-2.836,-2.8357,-2.8354,-2.8336,-2.8332,-2.8323,-2.8311,-2.831,-2.8308,-2.8303,-2.831,-2.8305,-2.8306,-2.8305,-2.8305,-2.8307,-2.831,-2.8282,-2.8282,-2.8282,0,0,-2.8419,-2.8412,-2.8412,-2.8406,-2.8395,-2.8386,-2.8386,-2.8372,-2.8366,-2.8363,-2.8349,-2.8345,-2.8334,-2.8326,-2.8321,-2.8333,-2.8323,-2.8332,-2.8343,-2.8344,-2.8346,-2.8347,-2.8352,-2.8354,-2.8332,-2.8332,-2.8332,0,-2.843,-2.8425,-2.8413,-2.8411,-2.8407,-2.8392,-2.8392,-2.8386,-2.8373,-2.837,-2.8364,-2.8351,-2.8342,-2.8339,-2.8342,-2.8338,-2.8338,-2.8333,-2.8346,-2.8348,-2.8349,-2.8353,-2.8355,-2.8333,-2.8333,-2.8333,-2.8333,0,-2.8439,-2.8436,-2.8437,-2.8427,-2.8423,-2.8422,-2.8409,-2.8407,-2.8398,-2.839,-2.8387,-2.8375,-2.8366,-2.8365,-2.8356,-2.8361,-2.8358,-2.835,-2.8339,-2.8353,-2.8357,-2.8358,-2.8335,-2.8335,-2.8334,-2.8334,0,0,-2.8461,-2.8446,-2.8446,-2.8442,-2.843,-2.8427,-2.8426,-2.8418,-2.8417,-2.8409,-2.8407,-2.8399,-2.8392,-2.8386,-2.8376,-2.8377,-2.8388,-2.8369,-2.8368,-2.8373,-2.8393,-2.8399,-2.8401,-2.8382,-2.8382,-2.8382,-2.8394,0,-2.8471,-2.8469,-2.8459,-2.8459,-2.8456,-2.8443,-2.8442,-2.8435,-2.8427,-2.8423,-2.8414,-2.8409,-2.84,-2.8397,-2.8397,-2.8387,-2.8392,-2.8386,-2.8379,-2.8379,-2.8382,-2.8403,-2.8409,-2.8421,-2.8396,-2.8396,-2.8396,0,-2.8482,-2.8477,-2.8478,-2.8468,-2.8466,-2.8465,-2.8458,-2.8455,-2.8447,-2.8441,-2.8436,-2.8426,-2.8424,-2.8415,-2.8412,-2.8408,-2.8405,-2.84,-2.84,-2.8398,-2.8388,-2.8402,-2.8425,-2.8426,-2.8398,-2.8398,-2.8398,0,-2.8498,-2.8491,-2.8491,-2.8488,-2.8476,-2.8476,-2.8471,-2.8462,-2.8459,-2.8453,-2.845,-2.8444,-2.844,-2.8435,-2.8424,-2.8418,-2.8422,-2.8412,-2.8417,-2.8417,-2.8417,-2.8417,-2.844,-2.8417,-2.8417,-2.8416,-2.8416,0,-2.8511,-2.8511,-2.8498,-2.8498,-2.8498,-2.8487,-2.8488,-2.8482,-2.8474,-2.8473,-2.8461,-2.8459,-2.8445,-2.8442,-2.8433,-2.8432,-2.843,-2.8425,-2.8423,-2.8426,-2.8427,-2.8423,-2.8422,-2.8417,-2.8417,-2.8417,-2.8417,0,-2.8528,-2.8519,-2.8518,-2.8507,-2.8505,-2.8506,-2.8497,-2.8496,-2.8489,-2.8487,-2.8485,-2.8474,-2.8469,-2.8458,-2.845,-2.8444,-2.8446,-2.8441,-2.8449,-2.8447,-2.8453,-2.8453,-2.8473,-2.8476,-2.8452,-2.8452,-2.8452,0,-2.8536,-2.8536,-2.8527,-2.8525,-2.8521,-2.8519,-2.8516,-2.8505,-2.8503,-2.8495,-2.8495,-2.849,-2.8486,-2.8479,-2.847,-2.8464,-2.8459,-2.8467,-2.8458,-2.8462,-2.8459,-2.8459,-2.8459,-2.8469,-2.8469,-2.8469,-2.8469,0,-2.8551,-2.8547,-2.8544,-2.854,-2.8538,-2.8533,-2.8529,-2.8528,-2.8516,-2.8514,-2.851,-2.8507,-2.8501,-2.8496,-2.8489,-2.8483,-2.8474,-2.8473,-2.8474,-2.8476,-2.8481,-2.8479,-2.8454,-2.8472,-2.8472,-2.8471,-2.8471,-2.8471,-2.8564,-2.8564,-2.8558,-2.8555,-2.8551,-2.8547,-2.8546,-2.854,-2.8537,-2.8532,-2.8526,-2.8523,-2.8516,-2.8506,-2.8501,-2.8499,-2.8494,-2.8495,-2.8495,-2.8496,-2.8497,-2.8482,-2.8498,-2.8498,-2.8497,-2.8497,-2.8497,0,-2.8578,-2.8574,-2.8572,-2.8567,-2.8565,-2.8559,-2.8553,-2.8552,-2.855,-2.8545,-2.8541,-2.8538,-2.8534,-2.8525,-2.852,-2.852,-2.8516,-2.8519,-2.8518,-2.8517,-2.8502,-2.8502,-2.8522,-2.8522,-2.8522,-2.8522,-2.8522,-2.8522,-2.8586,-2.8586,-2.8582,-2.8581,-2.8576,-2.8574,-2.8572,-2.8569,-2.8565,-2.8562,-2.8559,-2.8554,-2.8547,-2.8542,-2.8538,-2.8536,-2.8534,-2.8539,-2.8535,-2.8521,-2.8518,-2.8516,-2.8516,-2.8539,-2.8539,-2.8551,-2.8551,-2.8551]}]]